Location: Unspecified
(0.0000°N, 0.0000°E)
Time: 23:43:08
(UTC+00:00)

Transit 2A Rocket - All Passes

Search period start: 16 October 2017 00:00
Search period end: 26 October 2017 00:00
Orbit: 585 x 919 km, 66.7° (Epoch: 16 October)

Date Brightness Start Highest point End Pass type
(mag) Time Alt. Az. Time Alt. Az. Time Alt. Az.
16 Oct - 02:06:03 10° N 02:11:44 54° ENE 02:16:59 10° SSE night (unlit)
16 Oct - 14:35:56 10° SSW 14:40:26 55° WNW 14:45:21 10° N daylight
17 Oct - 01:24:29 10° NNE 01:29:18 27° ENE 01:33:49 10° SE night (unlit)
17 Oct - 03:07:21 10° WNW 03:11:38 22° WSW 03:15:41 10° SSW night (unlit)
17 Oct - 13:53:34 10° S 13:58:05 64° ESE 14:03:01 10° NNE daylight
18 Oct - 00:44:14 10° NE 00:46:49 13° ENE 00:49:18 10° E night (unlit)
18 Oct - 02:23:53 10° NW 02:29:20 45° WSW 02:34:23 10° S night (unlit)
18 Oct - 13:11:54 10° SSE 13:15:48 27° ESE 13:19:58 10° NE daylight
18 Oct - 14:55:30 10° WSW 14:58:10 15° WNW 15:00:57 10° NNW daylight
19 Oct - 01:41:12 10° NNW 01:47:02 88° ENE 01:52:21 10° SSE night (unlit)
19 Oct - 12:31:39 10° SE 12:33:31 12° ESE 12:35:26 10° E daylight
19 Oct - 14:11:33 10° SW 14:15:42 32° WNW 14:20:12 10° N daylight
20 Oct - 00:59:10 10° N 01:04:38 43° ENE 01:09:40 10° SE night (unlit)
20 Oct - 02:44:22 10° W 02:46:51 13° WSW 02:49:15 10° SW night (unlit)
20 Oct - 13:28:42 10° SSW 13:33:18 74° WNW 13:38:21 10° NNE daylight
21 Oct - 00:17:54 10° NNE 00:22:10 21° ENE 00:26:12 10° ESE night (unlit)
21 Oct - 01:59:49 10° NW 02:04:33 27° WSW 02:09:00 10° SSW night (unlit)
21 Oct - 12:46:32 10° S 12:50:58 48° ESE 12:55:49 10° NE daylight
22 Oct - 01:16:38 10° NNW 01:22:16 57° WSW 01:27:25 10° S night (unlit)
22 Oct - 12:05:10 10° SSE 12:08:42 21° ESE 12:12:26 10° ENE daylight
22 Oct - 13:47:37 10° WSW 13:51:00 19° WNW 13:54:37 10° NNW daylight
23 Oct - 00:34:11 10° NNW 00:39:55 70° ENE 00:45:10 10° SSE night (unlit)
23 Oct - 13:04:09 10° SW 13:08:33 42° WNW 13:13:22 10° N daylight
23 Oct - 23:52:22 10° N 23:57:30 34° ENE 00:02:17 10° SE night (unlit)
24 Oct - 01:36:19 10° WNW 01:39:46 17° WSW 01:43:03 10° SSW night (unlit)
24 Oct - 12:21:32 10° SSW 12:26:11 85° ESE 12:31:17 10° NNE daylight
24 Oct - 23:11:30 10° NNE 23:15:01 17° ENE 23:18:23 10° ESE night (unlit)
25 Oct - 00:52:24 10° NW 00:57:29 34° WSW 01:02:12 10° S night (unlit)
25 Oct - 11:39:36 10° S 11:43:52 37° ESE 11:48:30 10° NE daylight
25 Oct - 13:24:44 10° W 13:26:20 11° WNW 13:27:59 10° NW daylight
